[[{"header":{"parameterUnit":"m.s-1","parameterCategory":1,"la1":30.2991,"la2":30.254,"lo1":-89.0895,"lo2":-89.0444,"dy":0.0017,"dx":0.0017,"nx":28,"ny":28,"refTime":"2024-06-13T09:00:00:Z","depth":0,"parameterNumber":2,"parameterNumberName":"U-component_of_WINDS"},"data":[0,0,0,0,0,0,0,0,0,0,0,0,0,0,0,0,0,0,0,0,0,0,0,0,0,0,0,0,0,0,0,0,0,0,0,0,0,0,0,0,0,0,0,0,0,0,0,0,0,0,0,0,0,0,0,0,0,0,1.9674,1.9675,0,1.9784,1.9785,1.9787,1.9801,1.98,1.9799,1.9798,1.9909,1.9913,1.9917,0,0,0,0,0,0,0,0,0,0,0,0,0,1.9474,1.9477,1.9674,1.9675,1.9677,1.9784,1.9785,1.9787,1.9801,1.98,1.9799,1.9798,1.9908,1.9912,1.9917,0,0,0,0,0,0,0,0,0,0,0,0,0,1.957,1.9478,1.9674,1.9697,1.97,1.9784,1.9785,1.9787,1.9802,1.98,1.9799,1.9797,1.9906,1.9912,1.9918,1.9985,0,0,1.9936,1.9938,0,0,0,0,0,0,0,0,1.9564,1.9577,1.9692,1.9695,1.9699,1.9777,1.9755,1.9854,1.9802,1.9763,1.9798,1.9796,1.9866,1.9875,1.9899,1.999,1.9995,1.9936,1.994,1.9942,1.9944,0,0,0,0,0,0,0,1.9558,1.9572,1.9717,1.9694,1.9698,1.9701,1.9713,1.9774,1.9822,1.9766,1.9768,1.9781,1.9868,1.9894,1.9902,1.9997,1.9936,1.9941,1.9945,1.9947,2.0147,2.0148,0,0,0,0,0,0,1.9547,1.9567,1.9714,1.9721,1.9627,1.9706,1.9719,1.9754,1.9821,1.983,1.9782,1.9781,1.9884,1.9895,1.9906,1.9988,1.9942,1.9948,1.9951,2.0145,2.0147,2.0149,0,0,0,0,0,0,1.9543,1.956,1.9709,1.9644,1.9663,1.9711,1.975,1.9757,1.9783,1.9833,1.9841,1.9799,1.9884,1.9898,1.9965,1.9992,1.995,1.9956,2.0143,2.0146,2.0148,2.0153,0,0,0,0,0,0,1.9537,1.9558,1.9585,1.9645,1.9667,1.9767,1.9751,1.976,1.9793,1.9793,1.9852,1.986,1.9884,1.9956,1.9971,1.9999,1.996,2.0141,2.0144,2.0147,2.0151,2.0156,2.016,0,0,0,0,0,1.953,1.9582,1.9586,1.9604,1.9701,1.9769,1.9782,1.9808,1.9795,1.9822,1.9854,1.9858,1.9987,1.9963,1.998,2.001,2.0139,2.0143,2.0147,2.0149,2.0155,2.016,0,0,0,0,0,0,1.9524,1.959,1.9596,1.9669,1.9713,1.9771,1.9806,1.9814,1.9862,1.9859,1.989,1.9903,1.9968,1.9996,1.9968,2.0078,2.0062,2.0069,2.0057,2.0064,2.0068,2.0059,1.9965,0,0,0,0,0,1.9532,1.9582,1.9637,1.9696,1.9718,1.9758,1.9789,1.9805,1.9852,1.987,1.9907,1.9952,2.0002,2.0035,2.0084,2.0155,2.0168,2.0185,2.0189,2.0193,2.0198,2.0237,2.0244,2.0162,2.0162,2.0162,0,0,1.9547,1.959,1.9619,1.9696,1.9732,1.9782,1.9774,1.9827,1.9864,1.9878,1.9943,1.9972,2.0024,2.0093,2.0126,2.0119,2.0224,2.0198,2.02,2.0204,2.0241,2.0249,2.0256,2.0165,2.0164,2.0164,0,0,1.9601,1.9639,1.9692,1.9728,1.9783,1.9809,1.9822,1.9878,1.9898,1.9965,1.9975,2.002,2.0106,2.0142,2.0172,2.0238,2.0243,2.0253,2.0276,2.0313,2.032,2.0326,2.0348,2.0355,2.0259,2.0259,2.0259,0,1.9613,1.969,1.9718,1.9771,1.9803,1.9819,1.9872,1.9905,1.9973,1.9995,1.9986,2.0095,2.0131,2.0207,2.0223,2.0248,2.0262,2.0246,2.0317,2.0323,2.0329,2.035,2.0358,2.026,2.026,2.026,2.026,0,1.9701,1.9754,1.979,1.9855,1.9892,1.9945,1.998,2.0014,2.0027,2.0054,2.012,2.0164,2.0221,2.0241,2.0255,2.032,2.0314,2.0311,2.0294,2.0337,2.0357,2.0366,2.0261,2.0261,2.026,2.026,0,0,1.9753,1.9833,1.9846,1.9875,1.9936,1.9977,2.003,2.0087,2.0115,2.0161,2.0205,2.0278,2.0275,2.0309,2.0326,2.0359,2.0407,2.0352,2.0353,2.0359,2.0479,2.048,2.0489,2.0411,2.0413,2.0414,2.0474,0,1.9813,1.9908,1.9934,2.0015,2.0063,2.0078,2.0124,2.0166,2.0192,2.0236,2.0265,2.0315,2.0309,2.0329,2.0362,2.0394,2.0431,2.039,2.0451,2.0453,2.0436,2.05,2.0501,2.0556,2.0482,2.0484,2.0485,0,1.9895,1.9942,2.0027,2.0081,2.0102,2.0143,2.0197,2.0239,2.0287,2.0304,2.0341,2.0355,2.041,2.0392,2.0466,2.0438,2.0465,2.0484,2.0486,2.0492,2.047,2.0505,2.0574,2.0581,2.0498,2.0497,2.0496,0,1.9922,2.0008,2.0069,2.0094,2.0159,2.0187,2.0215,2.0262,2.0294,2.034,2.0361,2.0413,2.0442,2.0482,2.0509,2.0494,2.0581,2.0566,2.0595,2.0595,2.0612,2.061,2.0684,2.0632,2.0632,2.0631,2.0631,0,1.9985,2.0035,2.0082,2.012,2.0177,2.0207,2.0262,2.0291,2.0332,2.0374,2.0391,2.043,2.0465,2.0509,2.0532,2.0589,2.0602,2.0616,2.0621,2.0614,2.0612,2.0631,2.0627,2.0634,2.0633,2.0633,2.0632,0,2.0024,2.0058,2.0126,2.0182,2.0197,2.0236,2.0284,2.032,2.0347,2.0401,2.0415,2.0457,2.051,2.0542,2.0609,2.0624,2.0686,2.0691,2.067,2.0672,2.07,2.0696,2.0787,2.0799,2.074,2.0741,2.0741,0,2.0061,2.0101,2.0161,2.0191,2.0219,2.0267,2.03,2.0331,2.0364,2.0421,2.045,2.0504,2.0548,2.0631,2.0667,2.0718,2.0723,2.0751,2.073,2.0721,2.0721,2.0718,2.0721,2.0754,2.0754,2.0755,2.0755,0,2.0122,2.0137,2.0184,2.0236,2.0275,2.0317,2.036,2.0383,2.0421,2.0457,2.0511,2.0546,2.0614,2.0666,2.072,2.0748,2.0758,2.0762,2.0771,2.0763,2.0749,2.0755,2.0678,2.0759,2.0759,2.0758,2.0758,2.0758,2.0161,2.0196,2.0243,2.0294,2.033,2.0369,2.0405,2.0437,2.0483,2.0541,2.0556,2.0612,2.0658,2.0731,2.076,2.0804,2.08,2.0814,2.0817,2.0819,2.0819,2.0743,2.0814,2.0814,2.0814,2.0814,2.0814,0,2.0221,2.0252,2.0299,2.0358,2.0398,2.0404,2.0451,2.0484,2.0533,2.0575,2.0619,2.068,2.0731,2.0771,2.0823,2.085,2.0856,2.0863,2.086,2.0866,2.0821,2.0807,2.0857,2.0857,2.0857,2.0857,2.0857,2.0857,2.0257,2.0316,2.0336,2.0413,2.0444,2.0499,2.0525,2.0561,2.0594,2.0662,2.0705,2.0731,2.0772,2.0827,2.0873,2.0884,2.0901,2.0907,2.0918,2.0875,2.087,2.0865,2.0852,2.0911,2.0911,2.096,2.096,2.0961]},{"header":{"parameterUnit":"m.s-1","parameterCategory":1,"la1":30.2991,"la2":30.254,"lo1":-89.0895,"lo2":-89.0444,"dy":0.0017,"dx":0.0017,"nx":28,"ny":28,"refTime":"2024-06-13T09:00:00:Z","depth":0,"parameterNumber":3,"parameterNumberName":"V-component_of_WINDS"},"data":[0,0,0,0,0,0,0,0,0,0,0,0,0,0,0,0,0,0,0,0,0,0,0,0,0,0,0,0,0,0,0,0,0,0,0,0,0,0,0,0,0,0,0,0,0,0,0,0,0,0,0,0,0,0,0,0,0,0,1.489,1.4889,0,1.4786,1.4785,1.4783,1.47,1.4699,1.4698,1.4698,1.4586,1.4584,1.4582,0,0,0,0,0,0,0,0,0,0,0,0,0,1.5013,1.5011,1.489,1.4889,1.4888,1.4786,1.4785,1.4783,1.47,1.4699,1.4698,1.4697,1.4587,1.4584,1.4582,0,0,0,0,0,0,0,0,0,0,0,0,0,1.4939,1.5011,1.4891,1.4834,1.4828,1.4786,1.4784,1.4783,1.47,1.4699,1.4698,1.4697,1.4588,1.4585,1.4581,1.4586,0,0,1.4571,1.457,0,0,0,0,0,0,0,0,1.4944,1.4935,1.4844,1.4838,1.4831,1.4755,1.4787,1.4717,1.4701,1.4749,1.4697,1.4696,1.4643,1.4635,1.4618,1.4581,1.4576,1.4571,1.4569,1.4568,1.4567,0,0,0,0,0,0,0,1.4949,1.4939,1.4849,1.4843,1.4835,1.4812,1.4801,1.4773,1.4704,1.4744,1.4738,1.4727,1.4639,1.4621,1.4615,1.4574,1.4571,1.4568,1.4566,1.4565,1.4533,1.4534,0,0,0,0,0,0,1.4963,1.4944,1.4852,1.4846,1.4886,1.4811,1.4798,1.478,1.4704,1.4691,1.4728,1.4724,1.4628,1.4619,1.4611,1.4609,1.4568,1.4565,1.4563,1.4532,1.4533,1.4534,0,0,0,0,0,0,1.4966,1.4956,1.4856,1.4893,1.4879,1.4811,1.4791,1.4779,1.4761,1.4692,1.4679,1.4723,1.4626,1.4615,1.4592,1.4604,1.4563,1.456,1.453,1.4532,1.4534,1.4608,0,0,0,0,0,0,1.497,1.4958,1.496,1.4894,1.4877,1.4842,1.4792,1.4778,1.4756,1.4749,1.4684,1.4671,1.4625,1.4598,1.4589,1.4599,1.4557,1.4529,1.4531,1.4533,1.4604,1.4612,1.4619,0,0,0,0,0,1.4975,1.4984,1.496,1.495,1.4879,1.4843,1.4833,1.478,1.4758,1.4758,1.4713,1.4673,1.4605,1.4596,1.4586,1.4595,1.4528,1.453,1.4533,1.4601,1.4611,1.4619,0,0,0,0,0,0,1.5052,1.4975,1.4947,1.4936,1.4897,1.4829,1.4828,1.4792,1.4757,1.4752,1.4686,1.4672,1.4656,1.4623,1.4615,1.4594,1.4561,1.4562,1.4616,1.4625,1.4632,1.464,1.4555,0,0,0,0,0,1.5069,1.5047,1.498,1.4976,1.4958,1.4897,1.4879,1.4842,1.4798,1.478,1.4734,1.4692,1.466,1.4641,1.4608,1.4599,1.4583,1.46,1.4608,1.4614,1.4615,1.4606,1.4612,1.4542,1.4542,1.4542,0,0,1.5101,1.5056,1.5046,1.4991,1.4956,1.4934,1.4883,1.4862,1.4844,1.4776,1.4752,1.4717,1.4665,1.4649,1.4639,1.4621,1.463,1.4617,1.4623,1.462,1.4609,1.4616,1.4622,1.4544,1.4544,1.4544,0,0,1.5148,1.5113,1.5105,1.5072,1.502,1.4979,1.4977,1.4915,1.4889,1.4864,1.4812,1.4789,1.4737,1.4701,1.4677,1.471,1.4671,1.4701,1.4739,1.4731,1.4737,1.4741,1.4752,1.4756,1.4703,1.4703,1.4703,0,1.5195,1.5161,1.5106,1.5088,1.5064,1.5003,1.4994,1.4963,1.4903,1.4887,1.4868,1.48,1.4761,1.4735,1.4743,1.4726,1.472,1.4708,1.4741,1.4745,1.4748,1.4757,1.4761,1.4707,1.4706,1.4706,1.4705,0,1.522,1.5197,1.5196,1.5141,1.5117,1.5104,1.5045,1.5028,1.4992,1.4953,1.4927,1.4878,1.4834,1.4825,1.479,1.4793,1.4783,1.4753,1.4718,1.4759,1.4767,1.477,1.4712,1.4711,1.471,1.4709,0,0,1.5313,1.5227,1.5228,1.5201,1.514,1.512,1.5103,1.5061,1.5046,1.5006,1.4989,1.4946,1.4918,1.489,1.485,1.4843,1.4871,1.4813,1.4811,1.4825,1.487,1.4892,1.4897,1.4845,1.4846,1.4846,1.4874,0,1.5349,1.5317,1.5267,1.525,1.5227,1.5168,1.5153,1.5112,1.5075,1.5048,1.5006,1.4976,1.4942,1.4924,1.4915,1.487,1.4879,1.4867,1.4826,1.4826,1.484,1.4901,1.4925,1.4953,1.4876,1.4877,1.4877,0,1.5388,1.5353,1.5334,1.5273,1.5261,1.5249,1.5205,1.5182,1.5134,1.5107,1.5076,1.5033,1.5009,1.4979,1.4945,1.4938,1.4918,1.4893,1.4893,1.4886,1.4853,1.4895,1.4961,1.4965,1.4881,1.4881,1.4881,0,1.5456,1.5404,1.5385,1.5365,1.5294,1.5286,1.5255,1.5206,1.5184,1.5146,1.513,1.5089,1.5066,1.5035,1.4981,1.4964,1.4952,1.4918,1.4927,1.4929,1.4927,1.4927,1.499,1.4917,1.4917,1.4917,1.4916,0,1.5501,1.5492,1.5415,1.5404,1.5391,1.5332,1.532,1.5284,1.5241,1.522,1.5167,1.5148,1.5079,1.5051,1.5009,1.4986,1.4977,1.4953,1.4941,1.4957,1.496,1.4942,1.4938,1.4918,1.4917,1.4917,1.4917,0,1.5575,1.5524,1.5499,1.5434,1.5417,1.5411,1.5353,1.5339,1.5299,1.5273,1.5263,1.5199,1.5164,1.5108,1.5056,1.5027,1.5011,1.4993,1.5028,1.5021,1.5033,1.5033,1.5086,1.5089,1.5016,1.5016,1.5017,0,1.5607,1.5599,1.5532,1.5515,1.5487,1.5461,1.5437,1.5379,1.5357,1.5301,1.5293,1.5254,1.522,1.5166,1.5113,1.5073,1.5052,1.5074,1.5046,1.5061,1.5051,1.5052,1.505,1.508,1.5081,1.5082,1.5083,0,1.5669,1.5643,1.5613,1.5574,1.5548,1.5514,1.5477,1.5466,1.5398,1.5376,1.534,1.5314,1.5261,1.5222,1.5174,1.514,1.51,1.5092,1.5092,1.5107,1.5127,1.5115,1.5044,1.5091,1.509,1.509,1.5089,1.5089,1.5721,1.571,1.5662,1.563,1.5596,1.5562,1.5546,1.5503,1.5473,1.5426,1.5393,1.5359,1.5309,1.5241,1.521,1.5181,1.5163,1.5163,1.5163,1.5164,1.5169,1.5133,1.5172,1.5172,1.5171,1.5171,1.5171,0,1.5779,1.5745,1.5716,1.5666,1.564,1.5606,1.5563,1.5543,1.5514,1.5472,1.544,1.5398,1.536,1.5304,1.5262,1.5249,1.5229,1.5239,1.5239,1.5232,1.5188,1.5192,1.5256,1.5256,1.5256,1.5256,1.5256,1.5256,1.5806,1.5785,1.5754,1.5716,1.5681,1.5648,1.5627,1.5595,1.5561,1.5517,1.5485,1.545,1.5402,1.5355,1.5318,1.5302,1.5288,1.5304,1.5283,1.5243,1.5235,1.5227,1.523,1.5302,1.5302,1.5329,1.5329,1.5329]}]]